Pueblo, CO

5:59 PM MST on December 06, 2019 (GMT -0700)
Pueblo Memorial

Weather History for KPUB - November, 2019

Change the Weather History Date:

Sunday, November 17, 2019

  Actual Average Record
Temperature  
Mean Temperature 42 °F 39 °F  
Max Temperature 56 °F 55 °F 80 °F (1999)
Min Temperature 27 °F 22 °F 0 °F (2014)
Degree Days  
Heating Degree Days 24 26  
Month to date heating degree days 405 386  
Since 1 July heating degree days 987 896  
Cooling Degree Days 0 0  
Month to date cooling degree days 0 0  
Year to date cooling degree days 1226 897  
Moisture  
Dew Point 27 °F    
Average Humidity 59    
Maximum Humidity 85    
Minimum Humidity 33    
Precipitation  
Precipitation 0.00 in 0.02 in 0.42 in (1928)
Month to date precipitation T 0.28  
Year to date precipitation 12.31 12.00  
Snow  
Snow 0.00 in 0.20 in 4.40 in (1962)
Month to date snowfall T 2.2  
Since 1 July snowfall 12.0 3.8  
Since 1 September snowfall 12.0 3.8  
Snow Depth 0.00 in    
Sea Level Pressure  
Sea Level Pressure 30.09 in    
Wind  
Wind Speed 5 mph ()    
Max Wind Speed 12 mph    
Max Gust Speed 18 mph    
Visibility 10.0 miles    
Events Snow    
T = Trace of Precipitation, MM = Missing Value Source: Averaged Metar Reports

Daily Weather History Graph

Daily Weather History Graph

Search for Another Location

Airport or City:

Astronomy

Nov. 17, 2019 Rise Set
Actual Time 6:41 AM MST 4:44 PM MST
Civil Twilight 6:12 AM MST 5:12 PM MST
Nautical Twilight 5:40 AM MST 5:44 PM MST
Astronomical Twilight 5:09 AM MST 6:15 PM MST
Moon 9:24 PM MST (11/17) 11:27 AM MST (11/17)
Length of Visible Light 10h 59m
Length of Day
10h 02m
Waning Gibbous, 73% of the Moon is Illuminated
Nov 17
Waning Gibbous
Nov 19
Last Quarter
Nov 26
New
Dec 3
First Quarter
Dec 11
Full

Hourly Weather History & Observations

Time (MST) Temp. Windchill Dew Point Humidity Pressure Visibility Wind Dir Wind Speed Gust Speed Precip Events Conditions
12:53 AM 42.1 °F 39.2 °F 30.0 °F 62% 30.15 in 10.0 mi ENE 4.6 mph - N/A   Overcast
1:53 AM 41.0 °F 38.0 °F 28.9 °F 62% 30.15 in 10.0 mi SE 4.6 mph - N/A   Overcast
2:53 AM 39.0 °F 35.7 °F 28.9 °F 67% 30.16 in 10.0 mi SSE 4.6 mph - N/A   Overcast
3:53 AM 37.0 °F 34.5 °F 28.0 °F 70% 30.16 in 10.0 mi ESE 3.5 mph - 0.00 in   Mostly Cloudy
4:53 AM 30.0 °F 24.1 °F 25.0 °F 82% 30.19 in 10.0 mi North 5.8 mph - N/A   Partly Cloudy
5:53 AM 28.0 °F 22.8 °F 24.1 °F 85% 30.20 in 10.0 mi NW 4.6 mph - N/A   Clear
6:53 AM 28.0 °F - 23.0 °F 81% 30.18 in 10.0 mi Calm Calm - N/A   Clear
7:53 AM 32.0 °F 26.4 °F 26.1 °F 79% 30.20 in 10.0 mi East 5.8 mph - N/A   Clear
8:53 AM 37.0 °F 33.3 °F 28.9 °F 73% 30.20 in 10.0 mi SE 4.6 mph - N/A   Clear
9:53 AM 44.1 °F - 28.9 °F 55% 30.16 in 10.0 mi Calm Calm - N/A   Clear
10:53 AM 48.9 °F - 27.0 °F 43% 30.12 in 10.0 mi South 11.5 mph 17.3 mph N/A   Clear
11:53 AM 52.0 °F - 28.0 °F 40% 30.07 in 10.0 mi ESE 6.9 mph - N/A   Clear
12:53 PM 54.0 °F - 27.0 °F 35% 30.02 in 10.0 mi ESE 10.4 mph - N/A   Clear
1:53 PM 55.0 °F - 27.0 °F 34% 30.00 in 10.0 mi ESE 6.9 mph - N/A   Clear
2:53 PM 55.9 °F - 27.0 °F 33% 29.98 in 10.0 mi East 9.2 mph - N/A   Clear
3:53 PM 55.0 °F - 27.0 °F 34% 29.99 in 10.0 mi East 6.9 mph - N/A   Clear
4:53 PM 48.0 °F - 27.0 °F 44% 30.04 in 10.0 mi NE 8.1 mph - N/A   Clear
5:53 PM 44.1 °F 40.1 °F 27.0 °F 51% 30.08 in 10.0 mi NNE 6.9 mph - N/A   Clear
6:53 PM 43.0 °F 37.7 °F 27.0 °F 53% 30.08 in 10.0 mi North 9.2 mph - N/A   Clear
7:53 PM 39.9 °F 35.8 °F 26.1 °F 58% 30.07 in 10.0 mi West 5.8 mph - N/A   Clear
8:53 PM 37.0 °F 31.6 °F 26.1 °F 65% 30.06 in 10.0 mi West 6.9 mph - N/A   Clear
9:53 PM 37.0 °F 32.4 °F 27.0 °F 67% 30.02 in 10.0 mi West 5.8 mph - 0.00 in Snow Light Snow
10:53 PM 37.0 °F - 27.0 °F 67% 29.99 in 10.0 mi Calm Calm - 0.00 in   Clear
11:53 PM 34.0 °F 31.0 °F 27.0 °F 75% 29.97 in 10.0 mi WSW 3.5 mph - N/A   Clear